Snowfall_Accumulation
0.0 0.0 0.0 0.0 0.0 0.0 0.0 0.0 0.0 0.0 0.0 0.0 0.0 0.0 0.0 0.0 0.0 0.0 0.0 0.0 0.0 0.0 0.0 0.0 0.0 0.0 0.0 0.0 0.0 0.0 0.0 0.0 0.0 0.0 0.0 0.0 0.0 0.0 0.0 0.0 0.0 0.0 0.0 0.0
0.0 0.0 0.0 0.0 0.0 0.0 0.0 0.0 0.0 0.0 0.0 0.0 0.0 0.0 0.0 0.0 0.0 0.0 0.0 0.0 0.0 0.0 0.0 0.0 0.0 0.0 0.0 0.0 0.0 0.0 0.0 0.0 0.0 0.0 0.0 0.0 0.0 0.0 0.0 0.0 0.0 0.0 0.0 0.0
0.0 0.0 0.0 0.0 0.0 0.0 0.0 0.0 0.0 0.0 0.0 0.0 0.0 0.0 0.0 0.0 0.0 0.0 0.0 0.0 0.0 0.0 0.0 0.0 0.0 0.0 0.0 0.0 0.0 0.0 0.0 0.0 0.0 0.0 0.0 0.0 0.0 0.0 0.0 0.0 0.0 0.0 0.0 0.0
0.0 0.0 0.0 0.0 0.0 0.0 0.0 0.0 0.0 0.0 0.0 0.0 0.0 0.0 0.0 0.0 0.0 0.0 0.0 0.0 0.0 0.0 0.0 0.0 0.0 0.0 0.0 0.0 0.0 0.0 0.0 0.0 0.0 0.0 0.0 0.0 0.0 0.0 0.0 0.0 0.0 0.0 0.0 0.0
0.0 0.0 0.0 0.0 0.0 0.0 0.0 0.0 0.0 0.0 0.0 0.0 0.0 0.0 0.0 0.0 0.0 0.0 0.0 0.0 0.0 0.0 0.0 0.0 0.0 0.0 0.0 0.0 0.0 0.0 0.0 0.0 0.0 0.0 0.0 0.0 0.0 0.0 0.0 0.0 0.0 0.0 0.0 0.0
0.0 0.0 0.0 0.0 0.0 0.0 0.0 0.0 0.0 0.0 0.0 0.2 0.0 0.0 0.0 0.0 0.0 0.0 0.0 0.0 0.0 0.0 0.0 0.0 0.0 0.0 0.0 0.0 0.0 0.0 0.0 0.0 0.0 0.0 0.0 0.0 0.0 0.0 0.0 0.0 0.0 0.0 0.0 0.0
0.0 0.0 0.0 0.0 0.0 0.0 0.0 0.0 0.2 0.5 1.5 0.7 0.0 0.1 0.0 0.0 0.0 0.0 0.0 0.0 0.0 0.0 0.0 0.0 0.0 0.0 0.0 0.0 0.0 0.0 0.0 0.0 0.0 0.0 0.0 0.0 0.0 0.0 0.0 0.0 0.0 0.0 0.0 0.0
0.0 0.0 0.0 0.0 0.0 0.0 0.0 0.0 0.4 1.2 1.3 0.5 0.1 0.2 0.0 0.0 0.0 0.0 0.0 0.0 0.0 0.0 0.0 0.0 0.0 0.0 0.0 0.0 0.0 0.0 0.0 0.0 0.0 0.0 0.0 0.0 0.0 0.0 0.0 0.0 0.0 0.0 0.0 0.0
0.0 0.0 0.0 0.0 0.0 0.0 0.0 0.0 0.0 0.2 2.8 1.7 0.0 0.0 0.0 0.0 0.0 0.0 0.0 0.0 0.0 0.0 0.0 0.0 0.0 0.0 0.0 0.0 0.0 0.0 0.0 0.0 0.0 0.0 0.0 0.0 0.0 0.0 0.0 0.0 0.0 0.0 0.0 0.0
0.0 0.0 0.0 0.0 0.0 0.0 0.0 0.0 0.3 0.3 4.3 2.9 0.0 0.0 0.0 0.0 0.0 0.0 0.0 0.0 0.0 0.0 0.0 0.0 0.0 0.0 0.0 0.0 0.0 0.0 0.0 0.0 0.0 0.0 0.0 0.0 0.0 0.0 0.0 0.0 0.0 0.0 0.0 0.0
0.0 0.0 0.0 0.0 0.0 0.0 0.0 0.0 0.0 0.0 0.3 1.8 1.7 0.1 0.0 0.0 0.0 0.0 0.0 0.0 0.0 0.0 0.0 0.0 0.0 0.0 0.0 0.0 0.0 0.0 0.0 0.0 0.0 0.0 0.0 0.0 0.0 0.0 0.0 0.0 0.0 0.0 0.0 0.0
0.0 0.0 1.8 0.0 0.0 0.0 0.0 0.0 0.0 0.9 0.4 0.4 1.0 1.3 0.0 0.0 0.0 0.0 0.0 0.0 0.0 0.0 0.0 0.0 0.0 0.0 0.0 0.0 0.0 0.0 0.0 0.0 0.0 0.0 0.0 0.0 0.0 0.0 0.0 0.0 0.0 0.0 0.0 0.0
0.0 0.4 3.9 1.2 0.0 0.0 0.0 0.0 0.0 0.1 1.0 3.6 7.2 1.9 0.0 0.0 0.0 0.0 0.0 0.0 0.0 0.0 0.0 0.0 0.0 0.0 0.0 0.0 0.0 0.0 0.0 0.0 0.0 0.0 0.0 0.0 0.0 0.0 0.0 0.0 0.0 0.0 0.0 0.0
nan 0.1 0.3 1.1 0.1 0.0 0.3 0.1 0.1 0.1 3.5 1.0 0.8 0.1 0.0 0.0 0.0 0.0 0.0 0.0 0.0 0.0 0.0 0.0 0.0 0.0 0.0 0.0 0.0 0.0 0.0 0.0 0.0 0.0 0.0 0.0 0.0 0.0 0.0 0.0 0.0 0.0 0.0 0.0
0.0 1.6 0.1 0.0 0.0 0.0 0.1 0.1 0.0 0.0 0.0 0.5 0.0 0.1 0.0 0.0 0.0 0.0 0.0 0.0 0.0 0.0 0.0 0.0 0.0 0.0 0.0 0.0 0.0 0.0 0.0 0.0 0.0 0.0 0.0 0.0 0.0 0.0 0.0 0.2 0.2 0.2 0.2 0.0
0.0 2.4 0.2 1.7 0.0 0.0 0.2 0.0 0.1 0.1 0.0 0.0 0.0 0.0 0.0 0.0 0.0 0.0 0.0 0.0 0.0 0.0 0.0 0.0 0.0 0.0 0.0 0.0 0.0 0.0 0.0 0.0 0.0 0.0 0.0 0.0 0.3 0.6 0.8 0.7 0.5 0.3 0.3 0.3
0.2 2.3 7.0 13.8 0.3 0.3 9.2 0.3 0.0 0.0 0.0 0.0 0.1 0.0 0.2 0.1 0.0 0.0 0.0 0.0 0.0 0.0 0.0 0.0 0.0 0.0 0.0 0.0 0.0 0.0 0.0 0.1 0.4 0.8 1.7 1.5 1.1 1.5 1.0 0.8 0.6 0.5 0.4 0.4
1.1 3.5 5.7 15.7 9.0 33.9 1.9 0.0 0.0 0.0 0.1 0.1 0.2 0.5 0.3 0.1 0.0 0.0 0.0 0.0 0.0 0.0 0.0 0.0 0.0 0.0 0.0 0.0 0.0 0.0 0.1 0.2 0.5 1.2 2.5 2.0 1.1 2.3 1.2 1.0 1.0 0.6 0.5 0.6
0.1 0.6 12.3 26.9 20.5 0.7 0.0 0.0 0.0 0.1 0.1 0.1 0.1 0.1 0.1 0.0 0.0 0.0 0.0 0.0 0.0 0.0 0.0 0.0 0.0 0.0 0.0 0.0 0.0 0.2 0.3 0.3 0.3 0.5 0.9 1.1 1.8 2.7 1.4 3.3 1.5 1.0 1.7 1.2
0.6 0.2 1.2 24.6 25.2 21.7 0.2 0.0 0.0 0.0 1.7 0.8 0.4 0.3 0.3 0.1 0.4 0.0 0.0 0.0 0.0 0.0 0.0 0.0 0.0 0.0 0.0 0.0 0.0 0.3 0.5 0.9 0.7 0.5 0.5 0.7 1.7 4.0 3.2 1.7 2.7 3.0 2.9 2.5
6.3 12.0 19.9 18.3 22.2 7.9 0.7 0.4 0.0 6.0 3.1 1.5 0.5 0.4 0.4 0.5 0.1 0.0 0.0 0.0 0.0 0.0 0.0 0.0 0.0 0.0 0.0 0.2 0.5 0.6 0.6 0.8 0.9 1.3 1.3 1.6 1.8 4.3 2.6 3.1 2.5 3.7 4.2 2.1
1.5 10.0 21.8 16.9 22.3 25.5 0.2 0.1 0.8 0.8 0.5 0.6 0.2 0.0 0.1 0.0 0.0 0.0 0.0 0.0 0.0 0.0 0.0 0.0 0.0 0.0 0.0 0.7 1.0 1.1 0.7 0.9 1.6 2.1 2.4 3.0 4.9 4.4 4.4 8.1 5.0 6.8 5.9 5.8
5.5 1.1 7.6 2.3 4.6 0.1 0.1 0.2 0.1 0.1 0.7 0.2 0.1 0.0 0.0 0.0 0.0 0.0 0.0 0.0 0.0 0.0 0.0 0.0 1.3 1.3 0.0 1.7 1.9 2.4 1.6 1.9 2.6 5.1 7.2 7.1 6.3 6.3 6.3 9.2 6.2 8.4 7.0 8.2
0.4 0.0 2.0 2.1 0.7 0.3 0.4 0.1 0.0 0.1 0.1 0.0 0.0 0.1 0.0 0.0 0.0 0.0 0.0 0.1 0.0 0.8 1.2 1.5 2.2 2.6 2.4 2.2 2.7 3.2 2.8 3.0 9.7 9.8 5.3 4.2 5.4 4.0 5.4 7.3 8.4 11.8 9.4 7.8
0.4 0.3 0.9 1.5 0.0 0.1 0.2 0.2 0.0 0.0 0.0 0.0 0.0 0.0 0.0 0.0 0.0 0.0 0.7 1.0 0.6 1.1 1.3 1.9 2.5 2.5 2.3 2.0 2.4 3.7 3.6 4.5 6.6 7.0 3.9 5.4 7.6 8.4 4.9 4.4 7.5 6.4 4.3 9.2
0.0 0.0 0.3 2.1 0.0 0.1 0.1 0.0 0.0 0.0 0.0 0.2 0.2 0.3 0.4 0.4 0.3 0.5 0.8 0.5 0.7 1.1 1.4 2.0 2.3 2.2 2.7 3.4 3.8 5.0 6.6 6.4 6.5 4.1 5.8 5.6 5.6 4.9 4.3 4.3 4.1 nan nan nan
Water_Equivalent
0.00 0.00 0.00 0.00 0.00 0.00 0.00 0.00 0.00 0.00 0.00 0.00 0.00 0.00 0.00 0.00 0.00 0.00 0.00 0.00 0.00 0.00 0.00 0.00 0.00 0.00 0.00 0.00 0.00 0.00 0.00 0.00 0.00 0.00 0.00 0.00 0.00 0.00 0.00 0.00 0.00 0.00 0.00 0.00
0.00 0.00 0.00 0.00 0.00 0.00 0.00 0.00 0.00 0.00 0.00 0.00 0.00 0.00 0.00 0.00 0.00 0.00 0.00 0.00 0.00 0.00 0.00 0.00 0.00 0.00 0.00 0.00 0.00 0.00 0.00 0.00 0.00 0.00 0.00 0.00 0.00 0.00 0.00 0.00 0.00 0.00 0.00 0.00
0.00 0.00 0.00 0.00 0.00 0.00 0.00 0.00 0.00 0.00 0.00 0.00 0.00 0.00 0.00 0.00 0.00 0.00 0.00 0.00 0.00 0.00 0.00 0.00 0.00 0.00 0.00 0.00 0.00 0.00 0.00 0.00 0.00 0.00 0.00 0.00 0.00 0.00 0.00 0.00 0.00 0.00 0.00 0.00
0.00 0.00 0.00 0.00 0.00 0.00 0.00 0.00 0.00 0.00 0.00 0.00 0.00 0.00 0.00 0.00 0.00 0.00 0.00 0.00 0.00 0.00 0.00 0.00 0.00 0.00 0.00 0.00 0.00 0.00 0.00 0.00 0.00 0.00 0.00 0.00 0.00 0.00 0.00 0.00 0.00 0.00 0.00 0.00
0.00 0.00 0.00 0.00 0.00 0.00 0.00 0.00 0.00 0.00 0.00 0.00 0.00 0.00 0.00 0.00 0.00 0.00 0.00 0.00 0.00 0.00 0.00 0.00 0.00 0.00 0.00 0.00 0.00 0.00 0.00 0.00 0.00 0.00 0.00 0.00 0.00 0.00 0.00 0.00 0.00 0.00 0.00 0.00
0.00 0.00 0.00 0.00 0.00 0.00 0.00 0.00 0.00 0.00 0.00 0.03 0.00 0.00 0.00 0.00 0.00 0.00 0.00 0.00 0.00 0.00 0.00 0.00 0.00 0.00 0.00 0.00 0.00 0.00 0.00 0.00 0.00 0.00 0.00 0.00 0.00 0.00 0.00 0.00 0.00 0.00 0.00 0.00
0.00 0.00 0.00 0.00 0.00 0.00 0.00 0.00 0.05 0.09 0.28 0.13 0.00 0.02 0.00 0.00 0.00 0.00 0.00 0.00 0.00 0.00 0.00 0.00 0.00 0.00 0.00 0.00 0.00 0.00 0.00 0.00 0.00 0.00 0.00 0.00 0.00 0.00 0.00 0.00 0.00 0.00 0.00 0.00
0.00 0.00 0.00 0.00 0.00 0.00 0.00 0.00 0.09 0.20 0.23 0.10 0.03 0.04 0.00 0.00 0.00 0.00 0.00 0.00 0.00 0.00 0.00 0.00 0.00 0.00 0.00 0.00 0.00 0.00 0.00 0.00 0.00 0.00 0.00 0.00 0.00 0.00 0.00 0.00 0.00 0.00 0.00 0.00
0.00 0.00 0.00 0.00 0.00 0.00 0.00 0.00 0.00 0.04 0.45 0.33 0.00 0.00 0.00 0.00 0.00 0.00 0.00 0.00 0.00 0.00 0.00 0.00 0.00 0.00 0.00 0.00 0.00 0.00 0.00 0.00 0.00 0.00 0.00 0.00 0.00 0.00 0.00 0.00 0.00 0.00 0.00 0.00
0.00 0.01 0.00 0.00 0.00 0.00 0.00 0.00 0.05 0.05 0.63 0.40 0.00 0.00 0.00 0.00 0.00 0.00 0.00 0.00 0.00 0.00 0.00 0.00 0.00 0.00 0.00 0.00 0.00 0.00 0.00 0.00 0.00 0.00 0.00 0.00 0.00 0.00 0.00 0.00 0.00 0.00 0.00 0.00
0.00 0.00 0.00 0.00 0.00 0.00 0.00 0.00 0.00 0.00 0.06 0.31 0.29 0.01 0.00 0.00 0.00 0.00 0.00 0.00 0.00 0.00 0.00 0.00 0.00 0.00 0.00 0.00 0.00 0.00 0.00 0.00 0.00 0.00 0.00 0.00 0.00 0.00 0.00 0.00 0.00 0.00 0.00 0.00
0.00 0.00 0.38 0.00 0.00 0.00 0.00 0.00 0.00 0.19 0.08 0.09 0.21 0.23 0.00 0.00 0.00 0.00 0.00 0.00 0.00 0.00 0.00 0.00 0.00 0.00 0.00 0.00 0.00 0.00 0.00 0.00 0.00 0.00 0.00 0.00 0.00 0.00 0.00 0.00 0.00 0.00 0.00 0.00
0.00 0.10 0.74 0.23 0.00 0.00 0.00 0.00 0.00 0.03 0.26 0.67 1.10 0.34 0.00 0.00 0.00 0.00 0.00 0.00 0.00 0.00 0.00 0.00 0.00 0.00 0.00 0.00 0.00 0.00 0.00 0.00 0.00 0.00 0.00 0.00 0.00 0.00 0.00 0.00 0.00 0.00 0.00 0.00
nan 0.03 0.08 0.25 0.03 0.00 0.06 0.03 0.02 0.02 0.61 0.22 0.18 0.02 0.00 0.00 0.00 0.00 0.00 0.00 0.00 0.00 0.00 0.00 0.00 0.00 0.00 0.00 0.00 0.00 0.00 0.00 0.00 0.00 0.00 0.00 0.00 0.00 0.00 0.00 0.00 0.00 0.00 0.00
0.00 0.42 0.02 0.00 0.00 0.00 0.03 0.02 0.00 0.00 0.00 0.08 0.00 0.02 0.00 0.01 0.00 0.00 0.00 0.00 0.00 0.00 0.00 0.00 0.00 0.00 0.00 0.00 0.00 0.00 0.00 0.00 0.00 0.00 0.00 0.00 0.00 0.00 0.01 0.03 0.03 0.03 0.03 0.00
0.00 0.58 0.06 0.38 0.01 0.01 0.06 0.02 0.02 0.02 0.01 0.00 0.00 0.00 0.00 0.00 0.00 0.00 0.00 0.00 0.00 0.00 0.00 0.00 0.00 0.00 0.00 0.00 0.00 0.00 0.00 0.00 0.00 0.00 0.00 0.00 0.04 0.09 0.11 0.10 0.07 0.04 0.04 0.04
0.05 0.54 1.48 2.29 0.08 0.07 1.22 0.07 0.00 0.00 0.00 0.00 0.03 0.01 0.05 0.02 0.00 0.00 0.00 0.00 0.00 0.00 0.00 0.00 0.00 0.00 0.00 0.00 0.00 0.00 0.00 0.01 0.07 0.12 0.22 0.19 0.15 0.15 0.12 0.09 0.07 0.06 0.05 0.05
0.25 0.80 1.28 2.70 1.57 3.61 0.34 0.00 0.00 0.00 0.02 0.02 0.05 0.09 0.07 0.02 0.00 0.00 0.00 0.00 0.00 0.00 0.00 0.00 0.00 0.00 0.00 0.00 0.00 0.00 0.02 0.04 0.08 0.16 0.28 0.21 0.13 0.24 0.12 0.10 0.10 0.06 0.05 0.06
0.02 0.15 1.96 3.33 2.45 0.14 0.01 0.00 0.00 0.02 0.02 0.02 0.03 0.03 0.02 0.00 0.00 0.00 0.00 0.00 0.00 0.00 0.00 0.00 0.00 0.00 0.00 0.00 0.00 0.03 0.05 0.04 0.05 0.06 0.10 0.12 0.18 0.28 0.14 0.33 0.14 0.09 0.17 0.12
0.12 0.05 0.29 3.03 3.23 2.44 0.03 0.00 0.00 0.00 0.29 0.17 0.08 0.07 0.06 0.02 0.08 0.00 0.00 0.00 0.00 0.00 0.00 0.00 0.00 0.00 0.00 0.00 0.00 0.05 0.06 0.10 0.09 0.06 0.05 0.07 0.17 0.41 0.32 0.16 0.26 0.30 0.29 0.25
0.91 1.90 2.97 2.60 2.94 1.22 0.17 0.08 0.00 0.69 0.48 0.32 0.10 0.08 0.08 0.11 0.02 0.00 0.00 0.00 0.00 0.00 0.00 0.01 0.00 0.00 0.00 0.03 0.07 0.06 0.06 0.09 0.11 0.15 0.14 0.16 0.18 0.43 0.26 0.31 0.25 0.37 0.41 0.20
0.20 1.21 2.79 2.23 2.71 2.88 0.05 0.02 0.11 0.13 0.09 0.12 0.03 0.01 0.02 0.00 0.00 0.00 0.00 0.00 0.00 0.00 0.00 0.00 0.00 0.00 0.00 0.08 0.11 0.11 0.08 0.10 0.17 0.21 0.23 0.29 0.49 0.44 0.44 0.83 0.49 0.69 0.60 0.59
0.66 0.18 1.00 0.38 0.67 0.02 0.02 0.05 0.02 0.03 0.15 0.06 0.02 0.01 0.00 0.01 0.00 0.00 0.00 0.00 0.00 0.00 0.00 0.00 0.15 0.14 0.00 0.19 0.20 0.25 0.15 0.18 0.25 0.51 0.73 0.72 0.63 0.63 0.64 0.96 0.62 0.85 0.70 0.84
0.07 0.01 0.33 0.32 0.10 0.05 0.08 0.02 0.01 0.01 0.01 0.01 0.01 0.01 0.01 0.01 0.00 0.00 0.00 0.01 0.00 0.09 0.14 0.17 0.24 0.27 0.26 0.24 0.28 0.33 0.27 0.29 1.01 1.01 0.52 0.40 0.53 0.42 0.52 0.73 0.87 1.25 0.96 0.78
0.07 0.07 0.16 0.22 0.00 0.02 0.04 0.03 0.01 0.00 0.00 0.00 0.00 0.00 0.00 0.00 0.00 0.00 0.10 0.13 0.08 0.12 0.14 0.20 0.25 0.25 0.23 0.20 0.22 0.35 0.33 0.41 0.63 0.68 0.36 0.52 0.75 0.84 0.47 0.42 0.75 0.63 0.42 0.92
0.00 0.00 0.03 0.25 0.01 0.01 0.01 0.00 0.00 0.00 0.00 0.03 0.03 0.05 0.06 0.06 0.05 0.06 0.10 0.07 0.09 0.14 0.16 0.20 0.23 0.20 0.22 0.28 0.32 0.45 0.62 0.61 0.63 0.37 0.56 0.55 0.55 0.48 0.42 0.42 0.39 nan nan nan
SL_Ratio
nan nan nan nan nan nan nan nan nan nan nan nan nan nan nan nan nan nan nan nan nan nan nan nan nan nan nan nan nan nan nan nan nan nan nan nan nan nan nan nan nan nan nan nan
nan nan nan nan nan nan nan nan nan nan nan nan nan nan nan nan nan nan nan nan nan nan nan nan nan nan nan nan nan nan nan nan nan nan nan nan nan nan nan nan nan nan nan nan
nan nan nan nan nan nan nan nan nan nan nan nan nan nan nan nan nan nan nan nan nan nan nan nan nan nan nan nan nan nan nan nan nan nan nan nan nan nan nan nan nan nan nan nan
nan nan nan nan nan nan nan nan nan nan nan nan nan nan nan nan nan nan nan nan nan nan nan nan nan nan nan nan nan nan nan nan nan nan nan nan nan nan nan nan nan nan nan nan
nan nan nan nan nan nan nan nan nan nan nan nan nan nan nan nan nan nan nan nan nan nan nan nan nan nan nan nan nan nan nan nan nan nan nan nan nan nan nan nan nan nan nan nan
nan nan nan nan nan nan nan nan nan nan nan 5.0 nan nan nan nan nan nan nan nan nan nan nan nan nan nan nan nan nan nan nan nan nan nan nan nan nan nan nan nan nan nan nan nan
nan nan nan nan nan nan nan nan 4.9 5.1 5.3 5.0 nan 4.8 nan nan nan nan nan nan nan nan nan nan nan nan nan nan nan nan nan nan nan nan nan nan nan nan nan nan nan nan nan nan
nan 5.0 nan nan nan nan nan nan 4.6 6.0 5.4 4.6 5.2 5.0 3.3 nan nan nan nan nan nan nan nan nan nan nan nan nan nan nan nan nan nan nan nan nan nan nan nan nan nan nan nan nan
2.5 3.8 nan nan nan nan nan nan nan 5.1 6.2 5.2 nan nan nan nan nan nan nan nan nan nan nan nan nan nan nan nan nan nan nan nan nan nan nan nan nan nan nan nan nan nan nan nan
nan 4.5 nan nan nan nan nan nan 5.1 5.1 6.8 7.3 nan nan nan nan nan nan nan nan nan nan nan nan nan nan nan nan nan nan nan nan nan nan nan nan nan nan nan nan nan nan nan nan
nan 0.0 nan nan nan nan nan nan nan nan 5.0 5.8 6.0 5.1 nan nan nan nan nan nan nan nan nan nan nan nan nan nan nan nan nan nan nan nan nan nan nan nan nan nan nan nan nan nan
nan nan 4.8 nan nan nan nan nan nan 4.7 5.5 5.0 4.6 5.9 nan nan nan nan nan nan nan nan nan nan nan nan nan nan nan nan nan nan nan nan nan nan nan nan nan nan nan nan nan nan
nan 3.5 5.3 5.3 4.3 nan nan nan nan 3.3 4.0 5.4 6.6 5.7 nan nan 4.0 3.3 nan nan nan nan nan nan nan nan nan nan nan nan nan nan nan nan nan nan nan nan nan nan nan nan nan nan
nan 3.1 3.8 4.4 4.8 nan 4.8 4.2 4.1 4.0 5.8 4.7 4.5 4.3 nan nan nan nan nan nan nan nan nan nan nan nan nan nan nan nan nan nan nan nan nan nan nan nan nan nan nan nan nan nan
nan 3.8 3.3 3.6 nan 4.0 4.3 4.4 nan nan nan 5.6 3.6 3.8 5.0 3.8 4.0 nan nan nan nan nan nan nan nan nan nan nan nan nan nan nan nan nan nan nan nan nan 5.7 5.9 6.2 6.3 6.4 nan
nan 4.2 3.8 4.5 3.3 2.5 3.8 3.1 3.0 3.3 3.5 3.3 nan nan nan nan nan nan nan nan nan nan nan nan nan nan nan nan nan nan nan nan 0.0 5.0 6.0 6.0 6.2 6.8 7.4 7.1 7.3 6.9 7.0 6.9
3.7 4.2 4.7 6.0 4.1 4.2 7.5 4.2 nan nan nan nan 4.8 4.6 4.3 4.4 6.7 nan 5.0 nan nan nan nan nan nan nan nan nan nan nan nan 4.7 6.3 7.0 7.5 7.7 7.5 9.6 8.7 8.6 8.6 8.8 8.4 7.6
4.4 4.4 4.4 5.8 5.7 9.4 5.8 nan nan 0.0 4.8 4.7 4.7 5.1 4.6 4.4 nan 5.0 0.0 5.0 nan nan nan nan nan nan nan nan nan nan 4.7 5.7 6.9 7.7 8.7 9.5 9.1 9.8 9.9 9.9 9.8 9.1 8.7 9.3
4.2 4.2 6.3 8.1 8.4 5.1 4.2 nan 5.0 5.3 5.4 4.6 4.6 4.4 4.2 nan nan nan nan nan nan nan nan nan nan nan nan nan nan 5.4 6.4 6.7 7.3 7.7 8.4 9.3 9.8 9.8 10.1 10.0 10.5 10.6 10.1 9.9
4.6 4.4 4.3 8.1 7.8 8.9 6.0 5.0 nan 0.0 6.1 4.9 4.8 4.8 4.9 4.3 5.7 4.0 nan nan nan nan nan nan nan nan nan nan nan 6.8 8.5 8.9 8.6 8.4 8.5 9.2 10.1 9.9 10.2 10.5 10.3 10.0 9.9 9.9
7.0 6.3 6.7 7.0 7.5 6.5 4.0 4.6 3.3 8.7 6.4 4.9 5.0 4.7 5.3 4.7 4.2 2.5 nan nan nan 4.3 4.6 4.2 5.0 nan nan 6.3 8.0 9.6 8.9 9.0 8.2 8.5 9.3 10.1 10.4 10.0 10.2 10.1 10.0 10.0 10.0 10.2
7.7 8.2 7.8 7.6 8.2 8.8 4.0 4.7 7.7 6.1 4.9 4.7 4.8 4.5 4.5 5.0 nan nan nan nan nan nan nan nan 5.0 3.3 nan 8.7 8.7 9.3 9.7 9.4 9.6 10.1 10.2 10.3 10.1 10.0 10.0 9.8 10.1 9.9 9.9 9.9
8.4 6.2 7.6 6.1 6.8 4.1 4.1 4.0 3.6 4.2 4.6 4.4 4.6 4.5 4.2 4.7 nan nan nan nan nan nan nan nan 8.8 9.2 6.7 9.1 9.6 9.8 10.5 10.5 10.4 10.0 9.9 9.9 10.0 10.0 9.9 9.7 10.1 9.9 9.9 9.7
5.9 3.8 6.1 6.7 7.3 6.1 5.6 5.0 4.7 4.1 4.0 3.7 4.5 4.7 4.5 5.0 5.0 nan 5.0 6.4 nan 8.4 8.7 8.8 9.1 9.6 9.4 9.3 9.7 9.8 10.2 10.3 9.6 9.7 10.1 10.5 10.3 9.6 10.4 9.9 9.8 9.5 9.8 10.0
5.0 4.1 5.6 6.7 5.0 6.9 5.6 5.6 4.4 3.3 nan nan nan nan 4.4 3.3 4.0 10.0 7.2 7.3 7.4 9.6 9.7 9.6 9.8 9.9 9.9 10.1 10.8 10.4 11.1 11.0 10.4 10.3 10.9 10.5 10.1 10.0 10.4 10.3 10.0 10.1 10.2 10.0
nan nan 8.2 8.4 5.7 5.0 5.9 nan nan nan 0.0 5.5 5.9 6.7 6.9 6.5 6.6 7.3 7.6 7.4 7.7 8.1 9.2 9.8 10.3 10.8 12.1 12.0 11.8 11.1 10.6 10.4 10.3 11.1 10.5 10.3 10.1 10.2 10.2 10.2 10.5 nan nan nan